Weather History for KMTP - November, 2013

Change the Weather History Date:

Saturday, November 23, 2013

  Actual Average (KHTO) Record (KHTO)
Temperature  
Mean Temperature 44 °F -  
Max Temperature 53 °F 49 °F 67 °F (1931)
Min Temperature 35 °F 32 °F 19 °F (1949)
Degree Days  
Heating Degree Days 20    
Moisture  
Dew Point 29 °F    
Average Humidity 55    
Maximum Humidity 89    
Minimum Humidity 35    
Precipitation  
Precipitation 0.00 in - - ()
Sea Level Pressure  
Sea Level Pressure 29.89 in    
Wind  
Wind Speed 13 mph (WNW)    
Max Wind Speed 21 mph    
Max Gust Speed 31 mph    
Averages and records for this station are not official NWS values.
T = Trace of Precipitation, MM = Missing Value Source: NWS Daily Summary

Daily Weather History Graph

Daily Weather History Graph

Search for Another Location

Airport or City:

Trip Planner

Search our weather history database for the weather conditions in past years. The results will help you decide how hot, cold, wet, or windy it might be!

Date:

Astronomy

Nov. 23, 2013 Rise Set
Actual Time 6:44 AM EST 4:23 PM EST
Civil Twilight 6:14 AM EST 4:53 PM EST
Nautical Twilight 5:41 AM EST 5:26 PM EST
Astronomical Twilight 5:08 AM EST 5:59 PM EST
Moon 9:50 PM EST (11/23) 10:59 AM EST (11/23)
Length of Visible Light 10h 38m
Length of Day
9h 38m
Waning Gibbous, 70% of the Moon is Illuminated
Nov 23
Waning Gibbous
Nov 25
Last Quarter
Dec 2
New
Dec 9
First Quarter
Dec 17
Full

Hourly Weather History & Observations

Time (EST) Temp. Windchill Dew Point Humidity Pressure Visibility Wind Dir Wind Speed Gust Speed Precip Events Conditions
12:54 AM 53.1 °F - 48.9 °F 86% 29.85 in - WSW 5.8 mph - N/A   Unknown
1:54 AM 52.0 °F - 48.9 °F 89% 29.86 in - West 9.2 mph - N/A   Unknown
2:54 AM 53.1 °F - 46.9 °F 80% 29.86 in - WNW 12.7 mph 24.2 mph N/A   Unknown
3:54 AM 50.0 °F - 42.1 °F 74% 29.87 in - NW 15.0 mph 25.3 mph N/A   Unknown
4:54 AM 48.0 °F - 35.1 °F 61% 29.88 in - WNW 20.7 mph 28.8 mph N/A   Unknown
5:54 AM 46.0 °F 39.3 °F 33.1 °F 61% 29.91 in - WNW 16.1 mph 26.5 mph N/A   Unknown
6:54 AM 44.1 °F 36.2 °F 30.9 °F 60% 29.93 in - NW 18.4 mph 28.8 mph N/A   Unknown
7:54 AM 43.0 °F 36.0 °F 28.9 °F 58% 29.96 in - WNW 13.8 mph 26.5 mph N/A   Unknown
8:54 AM 43.0 °F 36.0 °F 28.9 °F 58% 29.96 in - NW 13.8 mph 26.5 mph N/A   Unknown
9:54 AM 44.1 °F 37.1 °F 28.0 °F 53% 29.95 in - NW 15.0 mph 24.2 mph N/A   Unknown
10:54 AM 46.0 °F 39.6 °F 27.0 °F 47% 29.94 in - WNW 15.0 mph 23.0 mph N/A   Unknown
11:54 AM 46.0 °F 40.2 °F 26.1 °F 46% 29.92 in - WNW 12.7 mph 20.7 mph N/A   Unknown
12:54 PM 46.0 °F 40.2 °F 23.0 °F 40% 29.90 in - WNW 12.7 mph 21.9 mph N/A   Unknown
1:54 PM 46.0 °F 40.2 °F 21.0 °F 37% 29.88 in - NW 12.7 mph 19.6 mph N/A   Unknown
2:54 PM 46.0 °F 40.2 °F 21.9 °F 39% 29.88 in - WNW 12.7 mph 18.4 mph N/A   Unknown
3:54 PM 46.0 °F 41.0 °F 21.0 °F 37% 29.87 in - West 10.4 mph 18.4 mph N/A   Unknown
4:54 PM 46.0 °F 41.9 °F 21.9 °F 39% 29.86 in - West 8.1 mph 20.7 mph N/A   Unknown
5:54 PM 44.1 °F 36.8 °F 18.0 °F 35% 29.87 in - WNW 16.1 mph 29.9 mph N/A   Unknown
6:54 PM 43.0 °F 35.7 °F 19.0 °F 38% 29.86 in - WNW 15.0 mph 25.3 mph N/A   Unknown
7:54 PM 43.0 °F 34.8 °F 23.0 °F 45% 29.86 in - West 18.4 mph 27.6 mph N/A   Unknown
8:54 PM 41.0 °F 32.2 °F 25.0 °F 53% 29.86 in - WNW 18.4 mph 31.1 mph N/A   Unknown
9:54 PM 37.0 °F 26.7 °F 26.1 °F 65% 29.88 in - NW 19.6 mph 28.8 mph N/A   Unknown
10:54 PM 36.0 °F 25.6 °F 24.1 °F 62% 29.88 in - WNW 18.4 mph 29.9 mph N/A   Unknown
11:54 PM 35.1 °F 23.8 °F 16.0 °F 46% 29.88 in - NW 20.7 mph 31.1 mph N/A   Unknown